Year,Month,Day,Hour,Minute,Value (Times are PST for temperature in C)
2013,05,06,00,00,14.30
2013,05,06,00,01,14.30
2013,05,06,00,02,14.40
2013,05,06,00,03,14.40
2013,05,06,00,04,14.40
2013,05,06,00,05,14.50
2013,05,06,00,06,14.50
2013,05,06,00,07,14.60
2013,05,06,00,08,14.70
2013,05,06,00,09,14.70
2013,05,06,00,10,14.70
2013,05,06,00,11,14.70
2013,05,06,00,12,14.70
2013,05,06,00,13,14.70
2013,05,06,00,14,14.70
2013,05,06,00,15,14.60
2013,05,06,00,16,14.60
2013,05,06,00,17,14.60
2013,05,06,00,18,14.60
2013,05,06,00,19,14.60
2013,05,06,00,20,14.60
2013,05,06,00,21,14.60
2013,05,06,00,22,14.60
2013,05,06,00,23,14.60
2013,05,06,00,24,14.60
2013,05,06,00,25,14.60
2013,05,06,00,26,14.60
2013,05,06,00,27,14.50
2013,05,06,00,28,14.50
2013,05,06,00,29,14.40
2013,05,06,00,30,14.40
2013,05,06,00,31,14.40
2013,05,06,00,32,14.40
2013,05,06,00,33,14.40
2013,05,06,00,34,14.40
2013,05,06,00,35,14.40
2013,05,06,00,36,14.40
2013,05,06,00,37,14.40
2013,05,06,00,38,14.40
2013,05,06,00,39,14.40
2013,05,06,00,40,14.40
2013,05,06,00,41,14.40
2013,05,06,00,42,14.40
2013,05,06,00,43,14.30
2013,05,06,00,44,14.30
2013,05,06,00,45,14.30
2013,05,06,00,46,14.30
2013,05,06,00,47,14.30
2013,05,06,00,48,14.30
2013,05,06,00,49,14.30
2013,05,06,00,50,14.30
2013,05,06,00,51,14.30
2013,05,06,00,52,14.30
2013,05,06,00,53,14.30
2013,05,06,00,54,14.30
2013,05,06,00,55,14.30
2013,05,06,00,56,14.30
2013,05,06,00,57,14.30
2013,05,06,00,58,14.20
2013,05,06,00,59,14.20
2013,05,06,01,00,14.20
2013,05,06,01,01,14.20
2013,05,06,01,02,14.20
2013,05,06,01,03,14.20
2013,05,06,01,04,14.20
2013,05,06,01,05,14.20
2013,05,06,01,06,14.20
2013,05,06,01,07,14.20
2013,05,06,01,08,14.20
2013,05,06,01,09,14.10
2013,05,06,01,10,14.10
2013,05,06,01,11,14.10
2013,05,06,01,12,14.10
2013,05,06,01,13,14.10
2013,05,06,01,14,14.10
2013,05,06,01,15,14.10
2013,05,06,01,16,14.10
2013,05,06,01,17,14.10
2013,05,06,01,18,14.10
2013,05,06,01,19,14.10
2013,05,06,01,20,14.10
2013,05,06,01,21,14.20
2013,05,06,01,22,14.20
2013,05,06,01,23,14.20
2013,05,06,01,24,14.20
2013,05,06,01,25,14.20
2013,05,06,01,26,14.20
2013,05,06,01,27,14.30
2013,05,06,01,28,14.30
2013,05,06,01,29,14.30
2013,05,06,01,30,14.40
2013,05,06,01,31,14.40
2013,05,06,01,32,14.50
2013,05,06,01,33,14.60
2013,05,06,01,34,14.70
2013,05,06,01,35,14.90
2013,05,06,01,36,15.00
2013,05,06,01,37,15.00
2013,05,06,01,38,15.00
2013,05,06,01,39,15.00
2013,05,06,01,40,15.10
2013,05,06,01,41,15.10
2013,05,06,01,42,15.10
2013,05,06,01,43,15.20
2013,05,06,01,44,15.10
2013,05,06,01,45,15.10
2013,05,06,01,46,15.10
2013,05,06,01,47,15.00
2013,05,06,01,48,15.00
2013,05,06,01,49,15.00
2013,05,06,01,50,15.00
2013,05,06,01,51,15.00
2013,05,06,01,52,15.00
2013,05,06,01,53,15.00
2013,05,06,01,54,15.00
2013,05,06,01,55,15.00
2013,05,06,01,56,15.00
2013,05,06,01,57,15.00
2013,05,06,01,58,15.00
2013,05,06,01,59,15.10
2013,05,06,02,00,15.20
2013,05,06,02,01,15.20
2013,05,06,02,02,15.20
2013,05,06,02,03,15.20
2013,05,06,02,04,15.20
2013,05,06,02,05,15.20
2013,05,06,02,06,15.20
2013,05,06,02,07,15.20
2013,05,06,02,08,15.10
2013,05,06,02,09,15.00
2013,05,06,02,10,15.00
2013,05,06,02,11,15.00
2013,05,06,02,12,15.00
2013,05,06,02,13,15.00
2013,05,06,02,14,15.00
2013,05,06,02,15,15.00
2013,05,06,02,16,15.00
2013,05,06,02,17,15.00
2013,05,06,02,18,15.00
2013,05,06,02,19,15.00
2013,05,06,02,20,15.00
2013,05,06,02,21,15.00
2013,05,06,02,22,15.00
2013,05,06,02,23,15.00
2013,05,06,02,24,15.00
2013,05,06,02,25,15.00
2013,05,06,02,26,15.00
2013,05,06,02,27,14.90
2013,05,06,02,28,14.90
2013,05,06,02,29,14.80
2013,05,06,02,30,14.80
2013,05,06,02,31,14.70
2013,05,06,02,32,14.70
2013,05,06,02,33,14.60
2013,05,06,02,34,14.50
2013,05,06,02,35,14.50
2013,05,06,02,36,14.40
2013,05,06,02,37,14.40
2013,05,06,02,38,14.30
2013,05,06,02,39,14.30
2013,05,06,02,40,14.20
2013,05,06,02,41,14.20
2013,05,06,02,42,14.10
2013,05,06,02,43,14.00
2013,05,06,02,44,14.00
2013,05,06,02,45,13.90
2013,05,06,02,46,13.90
2013,05,06,02,47,13.80
2013,05,06,02,48,13.80
2013,05,06,02,49,13.80
2013,05,06,02,50,13.80
2013,05,06,02,51,13.80
2013,05,06,02,52,13.80
2013,05,06,02,53,13.90
2013,05,06,02,54,13.90
2013,05,06,02,55,13.90
2013,05,06,02,56,13.90
2013,05,06,02,57,13.90
2013,05,06,02,58,13.90
2013,05,06,02,59,13.80
2013,05,06,03,00,13.80
2013,05,06,03,01,13.80
2013,05,06,03,02,13.80
2013,05,06,03,03,13.80
2013,05,06,03,04,13.80
2013,05,06,03,05,13.80
2013,05,06,03,06,13.80
2013,05,06,03,07,13.70
2013,05,06,03,08,13.70
2013,05,06,03,09,13.70
2013,05,06,03,10,13.70
2013,05,06,03,11,13.60
2013,05,06,03,12,13.60
2013,05,06,03,13,13.60
2013,05,06,03,14,13.60
2013,05,06,03,15,13.50
2013,05,06,03,16,13.50
2013,05,06,03,17,13.40
2013,05,06,03,18,13.40
2013,05,06,03,19,13.30
2013,05,06,03,20,13.30
2013,05,06,03,21,13.30
2013,05,06,03,22,13.20
2013,05,06,03,23,13.20
2013,05,06,03,24,13.20
2013,05,06,03,25,13.10
2013,05,06,03,26,13.10
2013,05,06,03,27,13.00
2013,05,06,03,28,13.00
2013,05,06,03,29,12.90
2013,05,06,03,30,12.90
2013,05,06,03,31,12.90
2013,05,06,03,32,12.80
2013,05,06,03,33,12.80
2013,05,06,03,34,12.80
2013,05,06,03,35,12.80
2013,05,06,03,36,12.70
2013,05,06,03,37,12.70
2013,05,06,03,38,12.70
2013,05,06,03,39,12.70
2013,05,06,03,40,12.70
2013,05,06,03,41,12.70
2013,05,06,03,42,12.70
2013,05,06,03,43,12.70
2013,05,06,03,44,12.60
2013,05,06,03,45,12.60
2013,05,06,03,46,12.60
2013,05,06,03,47,12.60
2013,05,06,03,48,12.60
2013,05,06,03,49,12.60
2013,05,06,03,50,12.60
2013,05,06,03,51,12.60
2013,05,06,03,52,12.60
2013,05,06,03,53,12.60
2013,05,06,03,54,12.60
2013,05,06,03,55,12.60
2013,05,06,03,56,12.60
2013,05,06,03,57,12.60
2013,05,06,03,58,12.60
2013,05,06,03,59,12.60
2013,05,06,04,00,12.60
2013,05,06,04,01,12.60
2013,05,06,04,02,12.60
2013,05,06,04,03,12.60
2013,05,06,04,04,12.60
2013,05,06,04,05,12.70
2013,05,06,04,06,12.70
2013,05,06,04,07,12.70
2013,05,06,04,08,12.70
2013,05,06,04,09,12.70
2013,05,06,04,10,12.70
2013,05,06,04,11,12.70
2013,05,06,04,12,12.70
2013,05,06,04,13,12.70
2013,05,06,04,14,12.60
2013,05,06,04,15,12.60
2013,05,06,04,16,12.60
2013,05,06,04,17,12.60
2013,05,06,04,18,12.60
2013,05,06,04,19,12.60
2013,05,06,04,20,12.60
2013,05,06,04,21,12.60
2013,05,06,04,22,12.60
2013,05,06,04,23,12.60
2013,05,06,04,24,12.60
2013,05,06,04,25,12.70
2013,05,06,04,26,12.70
2013,05,06,04,27,12.70
2013,05,06,04,28,12.70
2013,05,06,04,29,12.80
2013,05,06,04,30,12.80
2013,05,06,04,31,12.80
2013,05,06,04,32,12.80
2013,05,06,04,33,12.80
2013,05,06,04,34,12.80
2013,05,06,04,35,12.80
2013,05,06,04,36,12.90
2013,05,06,04,37,12.90
2013,05,06,04,38,12.90
2013,05,06,04,39,12.90
2013,05,06,04,40,12.90
2013,05,06,04,41,12.90
2013,05,06,04,42,12.90
2013,05,06,04,43,13.00
2013,05,06,04,44,13.00
2013,05,06,04,45,13.00
2013,05,06,04,46,13.00
2013,05,06,04,47,13.10
2013,05,06,04,48,13.10
2013,05,06,04,49,13.10
2013,05,06,04,50,13.10
2013,05,06,04,51,13.10
2013,05,06,04,52,13.10
2013,05,06,04,53,13.10
2013,05,06,04,54,13.20
2013,05,06,04,55,13.20
2013,05,06,04,56,13.20
2013,05,06,04,57,13.30
2013,05,06,04,58,13.30
2013,05,06,04,59,13.30
2013,05,06,05,00,13.30
2013,05,06,05,01,13.30
2013,05,06,05,02,13.30
2013,05,06,05,03,13.30
2013,05,06,05,04,13.30
2013,05,06,05,05,13.30
2013,05,06,05,06,13.30
2013,05,06,05,07,13.30
2013,05,06,05,08,13.30
2013,05,06,05,09,13.30
2013,05,06,05,10,13.30
2013,05,06,05,11,13.30
2013,05,06,05,12,13.30
2013,05,06,05,13,13.30
2013,05,06,05,14,13.30
2013,05,06,05,15,13.30
2013,05,06,05,16,13.40
2013,05,06,05,17,13.40
2013,05,06,05,18,13.40
2013,05,06,05,19,13.40
2013,05,06,05,20,13.50
2013,05,06,05,21,13.60
2013,05,06,05,22,13.60
2013,05,06,05,23,13.60
2013,05,06,05,24,13.60
2013,05,06,05,25,13.70
2013,05,06,05,26,13.70
2013,05,06,05,27,13.70
2013,05,06,05,28,13.80
2013,05,06,05,29,13.80
2013,05,06,05,30,13.80
2013,05,06,05,31,13.80
2013,05,06,05,32,13.80
2013,05,06,05,33,13.90
2013,05,06,05,34,13.90
2013,05,06,05,35,13.90
2013,05,06,05,36,14.00
2013,05,06,05,37,14.10
2013,05,06,05,38,14.10
2013,05,06,05,39,14.20
2013,05,06,05,40,14.20
2013,05,06,05,41,14.30
2013,05,06,05,42,14.30
2013,05,06,05,43,14.30
2013,05,06,05,44,14.30
2013,05,06,05,45,14.30
2013,05,06,05,46,14.20
2013,05,06,05,47,14.20
2013,05,06,05,48,14.20
2013,05,06,05,49,14.20
2013,05,06,05,50,14.30
2013,05,06,05,51,14.30
2013,05,06,05,52,14.30
2013,05,06,05,53,14.30
2013,05,06,05,54,14.30
2013,05,06,05,55,14.40
2013,05,06,05,56,14.40
2013,05,06,05,57,14.40
2013,05,06,05,58,14.40
2013,05,06,05,59,14.40
2013,05,06,06,00,14.40
2013,05,06,06,01,14.40
2013,05,06,06,02,14.40
2013,05,06,06,03,14.50
2013,05,06,06,04,14.50
2013,05,06,06,05,14.50
2013,05,06,06,06,14.50
2013,05,06,06,07,14.40
2013,05,06,06,08,14.40
2013,05,06,06,09,14.40
2013,05,06,06,10,14.40
2013,05,06,06,11,14.30
2013,05,06,06,12,14.30
2013,05,06,06,13,14.30
2013,05,06,06,14,14.20
2013,05,06,06,15,14.20
2013,05,06,06,16,14.20
2013,05,06,06,17,14.10
2013,05,06,06,18,14.10
2013,05,06,06,19,14.00
2013,05,06,06,20,14.00
2013,05,06,06,21,13.90
2013,05,06,06,22,13.90
2013,05,06,06,23,13.80
2013,05,06,06,24,13.80
2013,05,06,06,25,13.70
2013,05,06,06,26,13.70
2013,05,06,06,27,13.60
2013,05,06,06,28,13.60
2013,05,06,06,29,13.60
2013,05,06,06,30,13.60
2013,05,06,06,31,13.60
2013,05,06,06,32,13.60
2013,05,06,06,33,13.60
2013,05,06,06,34,13.60
2013,05,06,06,35,13.60
2013,05,06,06,36,13.60
2013,05,06,06,37,13.60
2013,05,06,06,38,13.60
2013,05,06,06,39,13.70
2013,05,06,06,40,13.70
2013,05,06,06,41,13.70
2013,05,06,06,42,13.80
2013,05,06,06,43,13.80
2013,05,06,06,44,13.80
2013,05,06,06,45,13.80
2013,05,06,06,46,13.90
2013,05,06,06,47,13.90
2013,05,06,06,48,13.90
2013,05,06,06,49,14.00
2013,05,06,06,50,14.00
2013,05,06,06,51,14.10
2013,05,06,06,52,14.10
2013,05,06,06,53,14.10
2013,05,06,06,54,14.20
2013,05,06,06,55,14.20
2013,05,06,06,56,14.20
2013,05,06,06,57,14.30
2013,05,06,06,58,14.30
2013,05,06,06,59,14.30
2013,05,06,07,00,14.40
2013,05,06,07,01,14.40
2013,05,06,07,02,14.50
2013,05,06,07,03,14.50
2013,05,06,07,04,14.50
2013,05,06,07,05,14.60
2013,05,06,07,06,14.60
2013,05,06,07,07,14.70
2013,05,06,07,08,14.70
2013,05,06,07,09,14.80
2013,05,06,07,10,14.80
2013,05,06,07,11,14.90
2013,05,06,07,12,15.00
2013,05,06,07,13,15.00
2013,05,06,07,14,15.00
2013,05,06,07,15,15.10
2013,05,06,07,16,15.20
2013,05,06,07,17,15.40
2013,05,06,07,18,15.50
2013,05,06,07,19,15.70
2013,05,06,07,20,15.80
2013,05,06,07,21,15.90
2013,05,06,07,22,16.10
2013,05,06,07,23,16.20
2013,05,06,07,24,16.30
2013,05,06,07,25,16.40
2013,05,06,07,26,16.50
2013,05,06,07,27,16.60
2013,05,06,07,28,16.70
2013,05,06,07,29,16.70
2013,05,06,07,30,16.80
2013,05,06,07,31,16.80
2013,05,06,07,32,16.80
2013,05,06,07,33,16.90
2013,05,06,07,34,17.00
2013,05,06,07,35,17.10
2013,05,06,07,36,17.20
2013,05,06,07,37,17.30
2013,05,06,07,38,17.30
2013,05,06,07,39,17.40
2013,05,06,07,40,17.60
2013,05,06,07,41,17.70
2013,05,06,07,42,17.70
2013,05,06,07,43,17.70
2013,05,06,07,44,17.70
2013,05,06,07,45,17.70
2013,05,06,07,46,17.70
2013,05,06,07,47,17.70
2013,05,06,07,48,17.70
2013,05,06,07,49,17.60
2013,05,06,07,50,17.60
2013,05,06,07,51,17.70
2013,05,06,07,52,17.70
2013,05,06,07,53,17.70
2013,05,06,07,54,17.70
2013,05,06,07,55,17.70
2013,05,06,07,56,17.70
2013,05,06,07,57,17.70
2013,05,06,07,58,17.80
2013,05,06,07,59,17.80
2013,05,06,08,00,17.90
2013,05,06,08,01,17.90
2013,05,06,08,02,18.00
2013,05,06,08,03,18.10
2013,05,06,08,04,18.20
2013,05,06,08,05,18.20
2013,05,06,08,06,18.40
2013,05,06,08,07,18.50
2013,05,06,08,08,18.60
2013,05,06,08,09,18.70
2013,05,06,08,10,18.70
2013,05,06,08,11,18.80
2013,05,06,08,12,18.90
2013,05,06,08,13,18.90
2013,05,06,08,14,19.10
2013,05,06,08,15,19.20
2013,05,06,08,16,19.40
2013,05,06,08,17,19.50
2013,05,06,08,18,19.60
2013,05,06,08,19,19.70
2013,05,06,08,20,19.70
2013,05,06,08,21,19.80
2013,05,06,08,22,19.80
2013,05,06,08,23,19.90
2013,05,06,08,24,19.90
2013,05,06,08,25,19.90
2013,05,06,08,26,20.00
2013,05,06,08,27,20.00
2013,05,06,08,28,20.10
2013,05,06,08,29,20.10
2013,05,06,08,30,20.20
2013,05,06,08,31,20.20
2013,05,06,08,32,20.30
2013,05,06,08,33,20.30
2013,05,06,08,34,20.40
2013,05,06,08,35,20.40
2013,05,06,08,36,20.50
2013,05,06,08,37,20.60
2013,05,06,08,38,20.60
2013,05,06,08,39,20.60
2013,05,06,08,40,20.50
2013,05,06,08,41,20.50
2013,05,06,08,42,20.50
2013,05,06,08,43,20.40
2013,05,06,08,44,20.40
2013,05,06,08,45,20.50
2013,05,06,08,46,20.60
2013,05,06,08,47,20.70
2013,05,06,08,48,20.70
2013,05,06,08,49,20.80
2013,05,06,08,50,20.90
2013,05,06,08,51,21.00
2013,05,06,08,52,21.10
2013,05,06,08,53,21.20
2013,05,06,08,54,21.20
2013,05,06,08,55,21.30
2013,05,06,08,56,21.30
2013,05,06,08,57,21.30
2013,05,06,08,58,21.30
2013,05,06,08,59,21.30
2013,05,06,09,00,21.30
2013,05,06,09,01,21.30
2013,05,06,09,02,21.30
2013,05,06,09,03,21.30
2013,05,06,09,04,21.30
2013,05,06,09,05,21.30
2013,05,06,09,06,21.30
2013,05,06,09,07,21.30
2013,05,06,09,08,21.30
2013,05,06,09,09,21.30
2013,05,06,09,10,21.20
2013,05,06,09,11,21.20
2013,05,06,09,12,21.20
2013,05,06,09,13,21.20
2013,05,06,09,14,21.30
2013,05,06,09,15,21.30
2013,05,06,09,16,21.40
2013,05,06,09,17,21.40
2013,05,06,09,18,21.40
2013,05,06,09,19,21.40
2013,05,06,09,20,21.40
2013,05,06,09,21,21.50
2013,05,06,09,22,21.60
2013,05,06,09,23,21.60
2013,05,06,09,24,21.70
2013,05,06,09,25,21.80
2013,05,06,09,26,21.80
2013,05,06,09,27,21.90
2013,05,06,09,28,22.00
2013,05,06,09,29,22.00
2013,05,06,09,30,22.10
2013,05,06,09,31,22.20
2013,05,06,09,32,22.30
2013,05,06,09,33,22.30
2013,05,06,09,34,22.40
2013,05,06,09,35,22.40
2013,05,06,09,36,22.50
2013,05,06,09,37,22.50
2013,05,06,09,38,22.50
2013,05,06,09,39,22.50
2013,05,06,09,40,22.50
2013,05,06,09,41,22.50
2013,05,06,09,42,22.50
2013,05,06,09,43,22.60
2013,05,06,09,44,22.60
2013,05,06,09,45,22.60
2013,05,06,09,46,22.70
2013,05,06,09,47,22.70
2013,05,06,09,48,22.80
2013,05,06,09,49,22.80
2013,05,06,09,50,22.90
2013,05,06,09,51,22.90
2013,05,06,09,52,22.90
2013,05,06,09,53,22.90
2013,05,06,09,54,22.80
2013,05,06,09,55,22.80
2013,05,06,09,56,22.80
2013,05,06,09,57,22.90
2013,05,06,09,58,23.00
2013,05,06,09,59,23.10
2013,05,06,10,00,23.10
2013,05,06,10,01,23.10
2013,05,06,10,02,23.10
2013,05,06,10,03,23.10
2013,05,06,10,04,23.20
2013,05,06,10,05,23.20
2013,05,06,10,06,23.20
2013,05,06,10,07,23.20
2013,05,06,10,08,23.10
2013,05,06,10,09,23.00
2013,05,06,10,10,22.90
2013,05,06,10,11,22.90
2013,05,06,10,12,22.90
2013,05,06,10,13,22.90
2013,05,06,10,14,23.00
2013,05,06,10,15,23.10
2013,05,06,10,16,23.20
2013,05,06,10,17,23.20
2013,05,06,10,18,23.20
2013,05,06,10,19,23.20
2013,05,06,10,20,23.20
2013,05,06,10,21,23.20
2013,05,06,10,22,23.20
2013,05,06,10,23,23.30
2013,05,06,10,24,23.30
2013,05,06,10,25,23.40
2013,05,06,10,26,23.50
2013,05,06,10,27,23.50
2013,05,06,10,28,23.60
2013,05,06,10,29,23.70
2013,05,06,10,30,23.60
2013,05,06,10,31,23.50
2013,05,06,10,32,23.40
2013,05,06,10,33,23.30
2013,05,06,10,34,23.20
2013,05,06,10,35,23.20
2013,05,06,10,36,23.20
2013,05,06,10,37,23.20
2013,05,06,10,38,23.20
2013,05,06,10,39,23.20
2013,05,06,10,40,23.30
2013,05,06,10,41,23.30
2013,05,06,10,42,23.30
2013,05,06,10,43,23.30
2013,05,06,10,44,23.40
2013,05,06,10,45,23.40
2013,05,06,10,46,23.40
2013,05,06,10,47,23.40
2013,05,06,10,48,23.20
2013,05,06,10,49,23.10
2013,05,06,10,50,22.90
2013,05,06,10,51,22.70
2013,05,06,10,52,22.40
2013,05,06,10,53,22.30
2013,05,06,10,54,22.20
2013,05,06,10,55,22.10
2013,05,06,10,56,22.10
2013,05,06,10,57,22.10
2013,05,06,10,58,22.10
2013,05,06,10,59,22.00
2013,05,06,11,00,22.00
2013,05,06,11,01,22.10
2013,05,06,11,02,22.10
2013,05,06,11,03,22.10
2013,05,06,11,04,22.10
2013,05,06,11,05,22.20
2013,05,06,11,06,22.20
2013,05,06,11,07,22.30
2013,05,06,11,08,22.30
2013,05,06,11,09,22.30
2013,05,06,11,10,22.30
2013,05,06,11,11,22.30
2013,05,06,11,12,22.30
2013,05,06,11,13,22.20
2013,05,06,11,14,22.20
2013,05,06,11,15,22.30
2013,05,06,11,16,22.30
2013,05,06,11,17,22.40
2013,05,06,11,18,22.50
2013,05,06,11,19,22.60
2013,05,06,11,20,22.60
2013,05,06,11,21,22.70
2013,05,06,11,22,22.70
2013,05,06,11,23,22.80
2013,05,06,11,24,22.80
2013,05,06,11,25,22.70
2013,05,06,11,26,22.60
2013,05,06,11,27,22.60
2013,05,06,11,28,22.70
2013,05,06,11,29,22.70
2013,05,06,11,30,22.70
2013,05,06,11,31,22.80
2013,05,06,11,32,22.90
2013,05,06,11,33,22.90
2013,05,06,11,34,22.90
2013,05,06,11,35,23.00
2013,05,06,11,36,23.10
2013,05,06,11,37,23.20
2013,05,06,11,38,23.20
2013,05,06,11,39,23.20
2013,05,06,11,40,23.10
2013,05,06,11,41,23.00
2013,05,06,11,42,22.90
2013,05,06,11,43,22.80
2013,05,06,11,44,22.80
2013,05,06,11,45,22.80
2013,05,06,11,46,22.90
2013,05,06,11,47,22.90
2013,05,06,11,48,22.90
2013,05,06,11,49,22.90
2013,05,06,11,50,22.80
2013,05,06,11,51,22.80
2013,05,06,11,52,22.70
2013,05,06,11,53,22.60
2013,05,06,11,54,22.60
2013,05,06,11,55,22.50
2013,05,06,11,56,22.40
2013,05,06,11,57,22.40
2013,05,06,11,58,22.50
2013,05,06,11,59,22.60
2013,05,06,12,00,22.80
2013,05,06,12,01,22.90
2013,05,06,12,02,23.10
2013,05,06,12,03,23.20
2013,05,06,12,04,23.30
2013,05,06,12,05,23.30
2013,05,06,12,06,23.30
2013,05,06,12,07,23.30
2013,05,06,12,08,23.30
2013,05,06,12,09,23.20
2013,05,06,12,10,23.20
2013,05,06,12,11,23.20
2013,05,06,12,12,23.20
2013,05,06,12,13,23.30
2013,05,06,12,14,23.30
2013,05,06,12,15,23.40
2013,05,06,12,16,23.40
2013,05,06,12,17,23.30
2013,05,06,12,18,23.30
2013,05,06,12,19,23.20
2013,05,06,12,20,23.30
2013,05,06,12,21,23.30
2013,05,06,12,22,23.20
2013,05,06,12,23,23.10
2013,05,06,12,24,23.10
2013,05,06,12,25,23.00
2013,05,06,12,26,22.90
2013,05,06,12,27,22.90
2013,05,06,12,28,23.00
2013,05,06,12,29,23.00
2013,05,06,12,30,23.10
2013,05,06,12,31,23.10
2013,05,06,12,32,23.10
2013,05,06,12,33,23.20
2013,05,06,12,34,23.20
2013,05,06,12,35,23.20
2013,05,06,12,36,23.30
2013,05,06,12,37,23.30
2013,05,06,12,38,23.30
2013,05,06,12,39,23.30
2013,05,06,12,40,23.30
2013,05,06,12,41,23.40
2013,05,06,12,42,23.50
2013,05,06,12,43,23.60
2013,05,06,12,44,23.60
2013,05,06,12,45,23.60
2013,05,06,12,46,23.70
2013,05,06,12,47,23.70
2013,05,06,12,48,23.60
2013,05,06,12,49,23.60
2013,05,06,12,50,23.70
2013,05,06,12,51,23.80
2013,05,06,12,52,23.90
2013,05,06,12,53,23.90
2013,05,06,12,54,24.00
2013,05,06,12,55,24.00
2013,05,06,12,56,24.00
2013,05,06,12,57,23.90
2013,05,06,12,58,23.90
2013,05,06,12,59,23.90
2013,05,06,13,00,23.80
2013,05,06,13,01,23.80
2013,05,06,13,02,23.70
2013,05,06,13,03,23.70
2013,05,06,13,04,23.70
2013,05,06,13,05,23.80
2013,05,06,13,06,23.80
2013,05,06,13,07,23.70
2013,05,06,13,08,23.70
2013,05,06,13,09,23.70
2013,05,06,13,10,23.80
2013,05,06,13,11,23.80
2013,05,06,13,12,23.80
2013,05,06,13,13,23.80
2013,05,06,13,14,23.80
2013,05,06,13,15,23.80
2013,05,06,13,16,23.80
2013,05,06,13,17,23.90
2013,05,06,13,18,23.90
2013,05,06,13,19,23.90
2013,05,06,13,20,23.90
2013,05,06,13,21,23.90
2013,05,06,13,22,23.90
2013,05,06,13,23,23.90
2013,05,06,13,24,23.90
2013,05,06,13,25,23.90
2013,05,06,13,26,23.90
2013,05,06,13,27,23.90
2013,05,06,13,28,23.90
2013,05,06,13,29,23.90
2013,05,06,13,30,23.90
2013,05,06,13,31,24.00
2013,05,06,13,32,24.00
2013,05,06,13,33,24.00
2013,05,06,13,34,24.10
2013,05,06,13,35,24.10
2013,05,06,13,36,24.10
2013,05,06,13,37,24.20
2013,05,06,13,38,24.20
2013,05,06,13,39,24.30
2013,05,06,13,40,24.40
2013,05,06,13,41,24.40
2013,05,06,13,42,24.50
2013,05,06,13,43,24.40
2013,05,06,13,44,24.40
2013,05,06,13,45,24.30
2013,05,06,13,46,24.30
2013,05,06,13,47,24.30
2013,05,06,13,48,24.40
2013,05,06,13,49,24.40
2013,05,06,13,50,24.40
2013,05,06,13,51,24.40
2013,05,06,13,52,24.30
2013,05,06,13,53,24.40
2013,05,06,13,54,24.40
2013,05,06,13,55,24.50
2013,05,06,13,56,24.50
2013,05,06,13,57,24.50
2013,05,06,13,58,24.50
2013,05,06,13,59,24.50
2013,05,06,14,00,24.40
2013,05,06,14,01,24.40
2013,05,06,14,02,24.40
2013,05,06,14,03,24.40
2013,05,06,14,04,24.40
2013,05,06,14,05,24.30
2013,05,06,14,06,24.40
2013,05,06,14,07,24.40
2013,05,06,14,08,24.40
2013,05,06,14,09,24.50
2013,05,06,14,10,24.50
2013,05,06,14,11,24.60
2013,05,06,14,12,24.60
2013,05,06,14,13,24.60
2013,05,06,14,14,24.60
2013,05,06,14,15,24.60
2013,05,06,14,16,24.60
2013,05,06,14,17,24.50
2013,05,06,14,18,24.40
2013,05,06,14,19,24.40
2013,05,06,14,20,24.30
2013,05,06,14,21,24.40
2013,05,06,14,22,24.50
2013,05,06,14,23,24.50
2013,05,06,14,24,24.60
2013,05,06,14,25,24.70
2013,05,06,14,26,24.70
2013,05,06,14,27,24.70
2013,05,06,14,28,24.70
2013,05,06,14,29,24.60
2013,05,06,14,30,24.60
2013,05,06,14,31,24.60
2013,05,06,14,32,24.50
2013,05,06,14,33,24.50
2013,05,06,14,34,24.60
2013,05,06,14,35,24.50
2013,05,06,14,36,24.60
2013,05,06,14,37,24.60
2013,05,06,14,38,24.60
2013,05,06,14,39,24.70
2013,05,06,14,40,24.80
2013,05,06,14,41,24.80
2013,05,06,14,42,24.80
2013,05,06,14,43,24.90
2013,05,06,14,44,24.90
2013,05,06,14,45,24.90
2013,05,06,14,46,24.90
2013,05,06,14,47,24.80
2013,05,06,14,48,24.80
2013,05,06,14,49,24.80
2013,05,06,14,50,24.80
2013,05,06,14,51,24.80
2013,05,06,14,52,24.80
2013,05,06,14,53,24.80
2013,05,06,14,54,24.80
2013,05,06,14,55,24.80
2013,05,06,14,56,24.80
2013,05,06,14,57,24.80
2013,05,06,14,58,24.70
2013,05,06,14,59,24.70
2013,05,06,15,00,24.70
2013,05,06,15,01,24.70
2013,05,06,15,02,24.70
2013,05,06,15,03,24.70
2013,05,06,15,04,24.70
2013,05,06,15,05,24.70
2013,05,06,15,06,24.80
2013,05,06,15,07,24.70
2013,05,06,15,08,24.80
2013,05,06,15,09,24.80
2013,05,06,15,10,24.80
2013,05,06,15,11,24.80
2013,05,06,15,12,24.70
2013,05,06,15,13,24.70
2013,05,06,15,14,24.70
2013,05,06,15,15,24.60
2013,05,06,15,16,24.70
2013,05,06,15,17,24.70
2013,05,06,15,18,24.70
2013,05,06,15,19,24.70
2013,05,06,15,20,24.80
2013,05,06,15,21,24.80
2013,05,06,15,22,24.80
2013,05,06,15,23,24.90
2013,05,06,15,24,25.00
2013,05,06,15,25,25.10
2013,05,06,15,26,25.10
2013,05,06,15,27,25.00
2013,05,06,15,28,25.00
2013,05,06,15,29,24.90
2013,05,06,15,30,24.90
2013,05,06,15,31,24.90
2013,05,06,15,32,24.90
2013,05,06,15,33,24.90
2013,05,06,15,34,25.00
2013,05,06,15,35,25.00
2013,05,06,15,36,25.10
2013,05,06,15,37,25.10
2013,05,06,15,38,25.10
2013,05,06,15,39,25.20
2013,05,06,15,40,25.30
2013,05,06,15,41,25.30
2013,05,06,15,42,25.30
2013,05,06,15,43,25.30
2013,05,06,15,44,25.30
2013,05,06,15,45,25.30
2013,05,06,15,46,25.40
2013,05,06,15,47,25.40
2013,05,06,15,48,25.40
2013,05,06,15,49,25.30
2013,05,06,15,50,25.30
2013,05,06,15,51,25.30
2013,05,06,15,52,25.30
2013,05,06,15,53,25.20
2013,05,06,15,54,25.20
2013,05,06,15,55,25.20
2013,05,06,15,56,25.20
2013,05,06,15,57,25.30
2013,05,06,15,58,25.30
2013,05,06,15,59,25.30
2013,05,06,16,00,25.30
2013,05,06,16,01,25.20
2013,05,06,16,02,25.20
2013,05,06,16,03,25.20
2013,05,06,16,04,25.20
2013,05,06,16,05,25.20
2013,05,06,16,06,25.20
2013,05,06,16,07,25.20
2013,05,06,16,08,25.20
2013,05,06,16,09,25.20
2013,05,06,16,10,25.20
2013,05,06,16,11,25.10
2013,05,06,16,12,25.10
2013,05,06,16,13,25.10
2013,05,06,16,14,25.10
2013,05,06,16,15,25.10
2013,05,06,16,16,25.10
2013,05,06,16,17,25.10
2013,05,06,16,18,25.10
2013,05,06,16,19,25.10
2013,05,06,16,20,25.10
2013,05,06,16,21,25.00
2013,05,06,16,22,25.00
2013,05,06,16,23,24.90
2013,05,06,16,24,24.80
2013,05,06,16,25,24.70
2013,05,06,16,26,24.70
2013,05,06,16,27,24.70
2013,05,06,16,28,24.60
2013,05,06,16,29,24.50
2013,05,06,16,30,24.50
2013,05,06,16,31,24.40
2013,05,06,16,32,24.40
2013,05,06,16,33,24.30
2013,05,06,16,34,24.30
2013,05,06,16,35,24.20
2013,05,06,16,36,24.10
2013,05,06,16,37,24.10
2013,05,06,16,38,24.00
2013,05,06,16,39,24.00
2013,05,06,16,40,23.90
2013,05,06,16,41,23.90
2013,05,06,16,42,23.90
2013,05,06,16,43,23.90
2013,05,06,16,44,23.90
2013,05,06,16,45,24.00
2013,05,06,16,46,24.00
2013,05,06,16,47,24.10
2013,05,06,16,48,24.10
2013,05,06,16,49,24.10
2013,05,06,16,50,24.10
2013,05,06,16,51,24.10
2013,05,06,16,52,24.10
2013,05,06,16,53,24.10
2013,05,06,16,54,24.10
2013,05,06,16,55,24.10
2013,05,06,16,56,24.10
2013,05,06,16,57,24.10
2013,05,06,16,58,24.10
2013,05,06,16,59,24.10
2013,05,06,17,00,24.20
2013,05,06,17,01,24.20
2013,05,06,17,02,24.20
2013,05,06,17,03,24.20
2013,05,06,17,04,24.20
2013,05,06,17,05,24.20
2013,05,06,17,06,24.20
2013,05,06,17,07,24.20
2013,05,06,17,08,24.20
2013,05,06,17,09,24.20
2013,05,06,17,10,24.20
2013,05,06,17,11,24.10
2013,05,06,17,12,24.10
2013,05,06,17,13,24.00
2013,05,06,17,14,24.00
2013,05,06,17,15,23.90
2013,05,06,17,16,23.90
2013,05,06,17,17,23.90
2013,05,06,17,18,23.90
2013,05,06,17,19,23.80